DW4362 Weather Reports


time (UTC)temp
F
wind
direction
speed
knots
gust
knots
rain 1hr
in
rain 24hr
in
rain mn
in
humidity
%
barometer
mb
20260506133134 74 194 0.0 0.0 0.00 0.00 0.00 91 1014.1
20260506131704 74 205 0.0 1.7 0.00 0.00 0.00 93 1014.0
20260506130204 73 162 1.7 1.7 0.00 0.00 0.00 94 1013.8
20260506123203 71 163 0.0 0.0 0.00 0.00 0.00 94 1013.5
20260506121703 70 202 2.6 2.6 0.00 0.00 0.00 94 1013.2
20260506120202 70 196 0.0 0.0 0.00 0.00 0.00 94 1013.0
20260506114702 69 168 0.0 1.7 0.00 0.00 0.00 94 1012.7
20260506113202 69 158 0.0 0.0 0.00 0.00 0.00 94 1012.5
20260506111702 69 214 0.0 0.0 0.00 0.00 0.00 94 1012.2
20260506104701 69 127 0.0 1.7 0.00 0.00 0.00 94 1011.6
20260506103201 69 214 0.0 1.7 0.00 0.00 0.00 94 1011.6
20260506101701 69 155 0.0 0.0 0.00 0.00 0.00 94 1011.4
20260506100200 68 204 0.0 2.6 0.00 0.00 0.00 94 1011.2
20260506094700 68 179 0.0 0.0 0.00 0.00 0.00 94 1011.2
20260506093200 67 162 0.0 0.0 0.00 0.00 0.00 94 1011.2
20260506091700 67 155 0.0 0.0 0.00 0.00 0.00 94 1011.3
20260506090159 66 167 0.0 0.0 0.00 0.00 0.00 94 1011.3
20260506084659 65 167 0.0 0.0 0.00 0.00 0.00 94 1011.6
20260506083159 65 167 0.0 0.0 0.00 0.00 0.00 94 1011.7
20260506081659 65 167 0.0 0.0 0.00 0.00 0.00 94 1011.7
20260506080158 65 185 0.0 0.0 0.00 0.00 0.00 94 1011.9
20260506073158 65 208 0.0 0.0 0.00 0.00 0.00 94 1012.0
20260506070157 66 208 0.0 0.0 0.00 0.00 0.00 94 1012.2
20260506061657 66 148 0.0 0.0 0.00 0.00 0.00 94 1012.4
20260506060156 65 172 0.0 0.0 0.00 0.00 0.00 94 1012.6
20260506044655 64 171 0.0 0.0 0.00 0.00 0.00 95 1013.3
20260506043155 64 171 0.0 0.0 0.00 0.00 0.00 95 1013.3
20260506041655 64 171 0.0 0.0 0.00 0.00 0.00 95 1013.3
20260506034654 65 171 0.0 0.0 0.00 0.00 0.00 94 1013.5
20260506033154 65 172 0.0 0.0 0.00 0.00 0.00 94 1013.6
20260506031654 65 172 0.0 0.0 0.00 0.00 0.00 93 1013.8
20260506030153 66 172 0.0 0.0 0.00 0.00 0.00 92 1013.7
20260506024653 66 172 0.0 0.0 0.00 0.00 0.00 91 1013.6
20260506023153 67 171 0.0 0.0 0.00 0.00 0.00 90 1013.5
20260506021653 68 171 0.0 0.0 0.00 0.00 0.00 89 1013.3
20260506020152 69 171 0.0 0.0 0.00 0.00 0.00 88 1013.1
20260506014652 69 174 0.0 0.0 0.00 0.00 0.00 87 1013.2
20260506013152 70 173 0.0 0.0 0.00 0.00 0.00 85 1013.3
20260506011651 71 161 0.0 0.0 0.00 0.00 0.00 84 1013.2
20260506010151 71 213 2.6 2.6 0.00 0.00 0.00 83 1013.1
20260506004651 71 128 1.7 4.3 0.00 0.00 0.00 82 1012.8
20260506003151 72 160 0.0 0.0 0.00 0.00 0.00 81 1012.8
20260506001651 72 189 0.0 1.7 0.00 0.00 0.00 79 1012.8
20260506000150 73 189 0.0 0.0 0.00 0.00 0.00 77 1012.9
20260505234650 73 190 2.6 2.6 0.00 0.00 0.00 75 1012.9
20260505233150 74 174 2.6 4.3 0.00 0.00 0.00 73 1012.9
20260505231649 74 165 2.6 2.6 0.00 0.00 0.00 72 1012.6
20260505230150 75 215 0.0 4.3 0.00 0.00 0.00 74 1012.7
20260505221649 75 199 7.0 9.6 0.00 0.00 0.00 71 1012.5
20260505220149 76 229 1.7 4.3 0.00 0.00 0.00 70 1012.5
20260505214648 77 162 1.7 7.0 0.00 0.00 0.00 69 1012.7
20260505213148 78 167 7.0 7.8 0.00 0.00 0.00 68 1012.8
20260505211647 77 181 4.3 4.3 0.00 0.00 0.00 68 1012.6
20260505210147 77 143 4.3 7.8 0.00 0.00 0.00 70 1012.7
20260505204647 77 151 4.3 7.8 0.00 0.00 0.00 68 1012.8
20260505203147 78 178 4.3 7.0 0.00 0.00 0.00 67 1013.0
20260505201647 78 166 4.3 7.0 0.00 0.00 0.00 66 1013.0
20260505194646 78 149 2.6 5.2 0.00 0.00 0.00 67 1013.3
20260505193146 78 210 2.6 7.8 0.00 0.00 0.00 68 1013.2
20260505191645 78 167 4.3 5.2 0.00 0.00 0.00 69 1013.5
20260505184645 78 216 2.6 7.8 0.00 0.00 0.00 69 1013.8
20260505183145 79 178 5.2 5.2 0.00 0.00 0.00 68 1014.0
20260505181645 77 190 2.6 5.2 0.00 0.00 0.00 70 1014.2
20260505180144 78 155 5.2 5.2 0.00 0.00 0.00 68 1014.0
20260505174644 78 149 4.3 4.3 0.00 0.00 0.00 70 1014.0
20260505173144 78 159 4.3 7.0 0.00 0.00 0.00 67 1013.8
20260505171644 79 203 4.3 9.6 0.00 0.00 0.00 66 1013.9
20260505170144 78 184 5.2 7.8 0.00 0.00 0.00 67 1014.0
20260505164643 77 195 2.6 7.8 0.00 0.00 0.00 68 1014.3
20260505163143 77 278 0.0 2.6 0.00 0.00 0.00 69 1014.3
20260505161643 77 203 1.7 7.0 0.00 0.00 0.00 68 1014.4
20260505153142 76 155 0.0 2.6 0.00 0.00 0.00 63 1014.4
20260505151642 76 212 1.7 4.3 0.00 0.00 0.00 61 1014.4
20260505150141 74 194 1.7 7.0 0.00 0.00 0.00 62 1014.4
20260505140141 69 344 0.0 2.6 0.00 0.00 0.00 72 1014.3